Weather in Novopokrovka

Russia / Republic of Crimea     45°09′58″N   35°15′19″E
temp.,
°C
wind,
m/s
gust,
m/s
humid.,
%
clouds,
%
prec.,
mm/h
press.,
hPa
HPBL,
m
25 february, thu
thu2500:00−2e23637 0.0 1036203
03:00−2nne136437 0.0 1036193
06:00−2nnw126529 0.0 1036195
09:000w116059 0.0 1036200
12:00+3n115149 0.0 1035351
15:00+4n125556 0.0 1034338
18:00+4ese126598 0.0 103363
21:00+4w347399 0.0 1033175
26 february, fri
fri2600:00+3wsw3681100 0.1 1032210
03:00+4w2585100 0.1 1031185
06:00+4wsw3588100 0.1 1030158
09:00+6wsw2586100 0.1 1030220
12:00+7wsw2480100 0.1 1029284
15:00+11wnw467195 0.1 1028681
18:00+9w587993 0.0 1026261
21:00+7ssw348950 0.0 102557
27 february, sat
sat2700:00+6sw34900 0.0 102455
03:00+5sw23890 0.0 102331
06:00+5ssw33900 0.0 102148
09:00+7ssw23840 0.0 102195
12:00+11wnw35650 0.0 1019758
15:00+11wnw577045 0.0 1018672
18:00+9wnw597999 0.0 1016483
21:00+7nnw3594100 1.0 1017258
28 february, sun
sun2800:00+6nnw6894100 4.2 1016459
03:00+4nw5887100 5.3 1016713
06:00+5nw796898 0.1 1016999
09:00+4nw8108189 0.2 1018851
12:00+5nw7973100 0.1 10191092
15:00+5nnw687094 0.3 1019990
18:00+4nw567999 0.3 1020756
21:00+3nw578999 0.6 1023465
1 march, mon
mon100:00+3nw468298 0.3 1024476
03:00+3nnw678799 0.7 1025620
06:00+3nnw6787100 0.4 1026549
09:00+2nnw5794100 0.9 1028464
12:00+2n5684100 0.6 1030620
15:00+3n6675100 0.8 1030709
18:00+3nnw567153 0.0 1031841
21:00+2nnw467872 0.1 1032555